RH
68 75 78 76 73 74 78 79 75 72 69 68 68 69 68 67 68 69 69 66 65 66 68 72 73 76 71 75 55 43 51 41 38 50 51 46 42 47 59 46 50 45 33 28 27 26 27
67 70 77 76 74 74 77 75 80 75 70 68 69 71 70 70 71 70 71 70 68 65 66 71 75 78 66 75 32 30 35 36 35 40 47 44 40 35 40 44 47 41 35 32 27 29 28
72 67 74 77 77 76 75 74 79 77 72 69 69 73 73 73 73 73 72 69 69 66 66 68 74 63 68 55 30 29 31 32 32 33 44 42 37 41 42 50 36 40 44 36 33 30 31
71 68 74 75 78 81 80 79 81 79 76 72 70 72 77 74 75 74 72 70 69 70 68 68 71 62 81 38 34 35 34 34 31 30 34 37 39 45 72 56 49 47 55 66 38 31 29
71 72 75 76 75 80 81 83 82 80 79 77 74 74 78 76 78 77 76 79 78 72 69 69 62 65 66 44 48 36 33 37 33 35 34 33 48 64 72 95 80 61 65 58 50 28 29
70 75 78 79 77 75 78 82 84 82 79 80 80 79 80 81 80 77 76 79 80 78 68 56 49 71 50 52 40 39 34 37 38 40 42 46 64 82 83 97 89 63 63 45 51 30 34
72 75 78 76 76 77 77 80 82 81 80 84 84 81 82 82 83 80 82 90 92 92 87 66 56 50 44 36 38 48 36 43 42 44 66 50 85 88 69 74 54 42 46 43 34 28 31
76 76 78 76 78 78 79 81 83 84 82 83 84 83 84 83 82 82 86 97 70 67 91 67 51 50 39 46 56 50 37 53 52 59 50 65 93 56 46 61 76 72 47 37 32 30 33
81 78 78 78 78 79 80 81 82 83 84 83 85 84 84 83 82 83 85 86 76 73 96 83 73 64 53 55 53 52 45 48 46 53 56 71 66 55 46 70 82 62 52 35 37 33 32
83 79 79 78 79 79 80 83 83 85 88 87 85 84 85 83 87 68 89 83 89 86 100 88 90 78 65 74 82 44 42 45 46 51 51 67 50 77 54 74 79 89 42 35 38 45 52
92 83 78 79 80 81 81 84 85 85 88 91 88 87 87 84 71 89 88 88 90 92 98 68 87 54 65 85 50 47 36 49 54 49 85 86 71 83 69 80 70 78 38 38 45 48 59
86 87 88 78 80 83 82 83 86 87 88 90 92 89 88 81 74 66 85 86 90 99 95 88 76 85 80 88 58 48 47 43 41 53 75 63 44 59 62 68 69 69 42 48 47 49 61
78 84 90 83 76 82 82 83 86 87 88 90 94 92 90 52 64 80 86 92 100 98 71 96 97 92 93 90 74 62 66 74 86 97 99 78 81 68 65 94 90 90 72 92 83 88 48
84 86 82 83 82 78 82 84 86 88 88 92 94 94 89 60 61 86 93 98 99 70 83 90 94 94 97 69 59 50 66 80 63 78 97 92 96 94 65 89 86 88 63 50 57 54 40
80 89 80 81 80 79 80 83 86 89 90 94 95 98 97 80 79 86 96 100 89 77 87 94 94 97 94 62 53 60 69 74 56 64 99 92 90 64 74 83 68 83 68 38 42 34 34
75 88 86 84 88 85 79 84 86 90 92 97 97 96 87 68 78 97 99 97 92 81 86 89 88 56 63 60 68 72 87 56 48 48 71 89 99 89 91 76 85 67 46 54 41 50 46
76 86 86 86 89 86 82 86 87 91 96 96 93 96 59 73 92 98 99 96 89 72 80 93 72 50 43 64 63 69 53 40 38 41 68 88 99 94 86 86 84 85 79 52 37 36 39
76 81 87 85 84 90 87 88 89 91 96 94 90 93 93 91 99 98 99 94 82 76 78 85 68 36 37 42 60 55 49 36 30 40 83 80 91 99 78 50 48 54 69 45 47 48 36
74 80 85 86 84 87 90 89 91 93 89 88 91 83 97 89 99 99 94 93 87 88 88 79 46 37 31 44 53 61 49 33 43 40 63 59 58 98 94 64 62 70 51 44 41 36 39
71 79 86 88 84 86 93 91 92 94 88 94 81 98 100 99 90 94 96 95 95 76 78 60 49 34 34 44 40 52 63 42 46 38 66 56 47 45 49 43 61 78 64 44 44 47 39
72 75 81 86 84 86 95 93 93 94 94 96 89 77 72 96 96 93 91 89 92 92 78 61 68 43 41 45 45 54 52 48 46 50 46 50 48 36 32 32 40 48 50 50 49 43 41
73 74 79 84 82 84 92 94 94 95 96 99 87 54 71 83 74 88 93 94 93 86 60 87 84 48 41 40 39 55 48 53 53 53 54 47 52 39 43 39 35 38 37 40 42 41 38
73 73 81 85 88 82 89 95 94 95 94 97 90 66 57 59 56 78 90 89 85 80 72 71 73 54 49 39 32 37 41 40 43 51 56 57 54 45 45 38 42 49 37 35 36 34 33
72 74 76 82 85 86 90 94 94 95 91 82 78 76 65 55 37 52 92 90 90 88 89 67 78 87 44 36 37 43 51 54 49 44 44 53 53 46 50 42 68 33 31 29 32 31 30
69 74 74 79 84 81 88 93 94 95 94 87 86 87 62 58 41 54 88 91 93 94 92 75 57 52 37 43 55 77 88 87 74 69 45 46 57 61 59 56 45 33 33 34 35 36 28
68 76 74 78 82 85 88 91 94 94 95 95 91 91 85 59 41 45 60 77 94 92 91 76 54 44 57 77 70 92 98 96 96 93 53 64 52 69 71 64 57 35 35 29 29 41 25
65 76 75 76 80 83 86 86 94 93 94 95 95 86 88 65 46 46 47 70 90 92 86 64 69 62 79 80 77 78 75 58 87 93 95 83 93 96 91 71 54 33 34 31 40 43 36
64 76 73 76 81 84 85 86 94 92 94 95 96 89 74 65 59 64 57 55 89 93 80 66 89 74 85 90 82 76 66 52 52 54 70 69 82 89 76 84 84 37 41 39 46 42 36
63 78 74 77 81 84 87 86 94 92 96 94 99 90 72 85 77 70 67 66 66 70 85 65 68 75 84 96 76 71 74 56 44 54 42 59 45 44 43 52 50 42 45 43 40 42 42
Wind_Speed
15 16 15 12 11 10 12 13 13 12 12 11 11 10 9 8 8 8 7 4 2 2 3 5 6 4 7 9 14 9 3 1 6 13 17 15 17 14 18 17 21 23 23 20 19 17 14
15 16 15 12 12 8 10 13 15 13 12 12 12 11 10 9 9 9 8 7 5 2 2 5 7 8 10 16 12 16 10 8 5 7 15 16 13 16 15 21 21 11 24 22 17 18 18
18 16 16 13 12 12 11 12 12 14 13 13 13 12 11 10 10 11 10 8 6 3 1 4 5 8 13 16 5 7 12 13 13 9 11 16 17 14 10 18 24 21 21 19 24 18 21
19 17 18 15 11 12 13 13 12 15 14 14 14 14 11 10 9 9 10 9 7 5 3 2 3 10 8 12 17 11 6 6 9 13 12 10 16 18 7 14 21 24 18 18 18 20 20
21 19 18 16 12 12 13 14 14 15 17 16 15 13 11 10 9 9 9 10 10 7 5 5 6 10 11 3 17 18 18 12 6 8 15 11 11 11 8 10 14 15 19 25 21 23 20
21 20 19 15 13 12 13 14 15 15 15 16 15 12 11 11 10 8 6 8 7 6 6 5 7 5 13 11 10 14 15 15 14 10 12 16 9 11 13 12 15 20 25 19 23 20 17
21 21 19 17 14 12 13 13 13 14 13 13 13 12 11 9 11 10 3 3 3 1 9 11 10 13 3 15 4 8 13 12 15 16 17 21 12 19 27 25 23 22 20 22 21 19 16
22 20 19 18 16 15 13 13 12 13 13 12 12 11 10 9 9 12 5 5 7 1 6 21 18 16 12 5 7 12 14 14 19 21 20 19 19 25 28 22 22 23 22 22 13 15 11
22 20 19 19 17 17 15 13 12 12 14 12 12 11 9 7 4 3 11 12 6 3 5 7 20 21 18 8 9 12 18 20 21 21 21 24 22 27 28 24 22 26 25 19 15 12 11
23 22 19 18 17 16 16 14 13 13 13 12 11 12 9 6 1 9 8 8 8 4 5 6 8 7 13 8 10 23 20 17 16 22 21 19 25 19 27 26 24 19 17 15 15 8 8
27 24 22 18 16 13 13 15 14 14 13 12 13 13 12 15 2 3 6 9 9 3 8 11 9 8 10 12 5 18 23 20 20 20 5 11 9 23 26 25 27 12 22 16 12 8 4
21 27 24 23 17 15 12 14 14 14 12 12 14 14 12 8 8 2 12 10 3 2 8 7 7 12 9 17 15 2 22 17 14 19 15 19 11 22 22 23 21 9 18 12 7 4 7
21 27 28 20 20 15 14 14 13 11 12 12 14 15 13 9 8 16 13 4 3 8 3 5 4 8 12 11 19 10 17 20 11 7 12 9 15 18 13 15 19 13 17 7 6 5 7
18 22 29 27 22 18 13 13 13 11 10 12 13 15 12 10 7 15 6 2 10 4 6 4 4 8 7 12 15 20 9 16 21 9 5 9 10 15 17 7 10 12 17 8 8 10 12
24 19 22 25 29 22 15 14 12 11 10 12 10 5 4 9 9 11 5 6 5 4 6 7 8 6 7 15 7 15 16 17 18 19 6 8 8 13 13 11 14 7 11 2 3 7 8
20 19 18 22 32 21 16 14 13 11 10 11 3 3 4 15 15 7 5 10 6 5 4 7 12 14 13 15 10 14 12 16 17 16 14 5 2 6 3 11 6 9 8 7 4 8 5
23 24 17 19 26 16 13 15 13 10 12 11 3 3 3 11 9 3 7 7 7 8 9 9 16 13 14 12 15 12 9 7 22 20 15 2 2 4 6 6 13 7 4 5 4 3 3
25 22 19 19 26 17 12 15 13 12 12 9 3 3 8 11 5 3 5 5 4 7 16 11 14 11 14 17 13 16 13 16 18 14 11 12 7 4 6 6 13 10 10 13 6 6 5
26 26 19 17 21 25 14 16 14 15 18 5 3 3 5 6 5 5 4 7 7 3 7 10 11 13 12 13 10 12 11 15 12 19 9 10 3 4 6 7 4 5 11 16 13 6 11
28 24 19 15 20 23 14 16 14 19 18 4 3 5 3 3 4 5 6 8 8 13 16 16 10 14 14 13 15 16 8 10 12 20 16 6 9 7 5 7 13 10 15 16 15 10 10
30 23 24 18 21 23 18 16 15 17 19 4 3 5 6 6 8 13 9 5 5 7 12 17 7 18 16 13 16 7 15 13 13 16 14 6 9 4 3 4 16 17 20 20 19 18 12
31 27 25 18 20 24 24 17 16 16 17 3 3 5 5 3 11 14 14 8 13 13 13 7 13 19 18 10 13 10 15 11 10 15 17 12 5 2 3 1 6 13 18 20 22 23 21
31 27 24 24 24 21 24 15 17 17 12 2 1 3 3 5 7 7 5 11 12 12 8 6 8 9 16 13 12 3 13 11 3 15 19 7 5 4 3 5 5 10 19 19 19 22 20
31 28 23 22 24 25 24 15 18 18 16 2 2 2 5 9 12 9 3 9 13 11 2 7 7 3 7 5 4 8 10 10 7 12 16 13 9 3 2 5 6 2 2 17 21 19 20
30 29 25 23 22 23 24 15 18 18 22 2 2 2 4 7 10 5 6 5 3 3 8 1 6 5 6 7 8 6 2 3 6 9 15 8 7 4 3 6 10 12 4 5 16 19 19
29 29 25 23 25 22 20 23 18 18 20 4 2 2 3 4 1 2 9 7 3 2 3 1 2 2 2 3 3 6 4 4 5 4 5 2 8 3 1 4 4 5 2 0 6 10 5
28 30 27 24 23 22 19 22 17 18 17 5 2 5 3 4 3 3 4 4 4 3 3 4 3 5 2 4 2 4 4 5 8 9 6 2 2 5 2 5 7 5 5 4 6 4 3
27 30 26 26 23 24 19 21 15 16 15 7 1 5 5 4 2 2 2 3 2 2 3 5 3 2 2 2 2 2 2 4 4 10 12 10 7 4 7 3 8 7 5 4 4 5 6
27 29 26 25 25 24 19 22 16 16 17 10 2 3 5 3 4 2 2 1 1 3 4 1 1 5 4 3 2 2 1 2 5 6 3 10 8 8 7 4 3 2 4 2 5 9 9
Wind_Direction
290 292 299 271 270 275 252 244 238 246 257 263 270 272 275 279 283 280 265 232 225 264 282 263 242 191 189 223 239 144 196 74 190 205 220 218 219 222 233 228 232 239 237 239 246 257 250
280 284 290 275 271 258 256 267 236 237 245 253 259 263 266 264 268 264 265 259 237 198 279 281 246 195 239 245 240 251 216 251 291 214 216 230 235 226 248 235 225 230 241 245 232 243 246
280 278 281 283 262 261 250 258 250 235 241 245 251 256 251 257 259 268 257 256 249 226 224 285 251 212 236 234 204 255 246 253 261 257 238 229 235 237 232 252 246 233 245 236 243 239 255
278 273 277 277 270 251 250 248 249 241 240 243 244 249 242 253 244 259 267 265 259 260 220 224 223 226 246 241 250 221 206 228 241 250 249 262 231 249 267 290 277 227 242 243 234 228 238
278 272 273 268 263 258 245 248 243 244 242 238 240 243 248 232 220 244 260 274 262 238 222 158 200 225 250 155 222 231 231 232 224 245 232 243 243 219 248 238 243 224 226 220 240 232 228
272 272 269 263 258 261 254 251 246 238 245 247 232 235 242 226 214 226 261 283 293 207 188 205 252 215 236 226 224 225 221 232 235 251 223 211 210 211 219 221 211 209 217 216 222 229 208
266 266 268 260 263 258 255 249 253 242 246 246 223 226 235 230 218 199 174 117 99 238 213 193 192 218 357 201 219 208 206 204 222 229 221 206 213 216 213 225 236 228 206 217 223 213 231
262 262 268 261 259 250 252 246 241 239 240 244 224 223 232 228 231 206 194 220 211 38 225 232 250 229 262 233 216 223 183 199 201 217 217 220 225 224 222 235 228 248 221 209 207 193 204
257 257 261 258 254 251 246 250 242 235 238 234 224 220 224 219 200 201 229 235 128 88 258 221 226 232 223 218 241 211 192 207 203 219 219 223 225 228 222 220 226 233 223 216 213 180 226
259 256 254 254 252 255 249 243 239 232 229 227 223 210 207 154 102 237 235 184 129 91 261 200 213 220 208 198 239 238 198 212 222 224 215 241 240 265 212 221 233 213 222 201 190 195 218
331 279 259 245 244 246 249 245 236 233 229 220 213 211 196 184 97 223 131 123 110 89 265 126 151 168 188 187 187 201 210 214 227 211 145 210 200 239 216 211 203 221 201 184 190 194 315
328 330 298 256 238 242 242 247 235 233 223 220 209 209 187 198 240 233 131 128 113 202 247 163 137 178 190 197 241 179 198 211 228 250 237 241 232 226 209 208 225 270 164 156 180 160 229
306 311 319 274 250 235 237 242 232 235 215 215 207 205 187 198 224 142 138 135 186 235 106 176 176 195 204 187 219 188 197 202 206 179 232 203 246 260 180 215 203 211 145 149 162 195 223
316 295 304 322 275 245 238 236 232 232 231 208 205 205 208 218 158 142 150 151 223 237 186 122 156 169 194 188 216 210 216 226 215 208 228 183 202 203 193 231 198 193 179 175 162 183 193
332 293 291 303 305 259 234 233 227 226 241 194 196 207 170 202 153 160 150 226 232 196 164 176 157 182 206 199 220 195 217 238 212 190 257 172 237 188 184 188 166 200 212 59 113 33 160
318 304 298 305 316 265 241 219 220 216 208 184 154 174 212 183 172 164 189 226 239 178 161 170 194 204 194 194 190 185 204 213 210 210 203 269 279 318 153 134 42 225 187 183 235 153 189
322 325 315 301 308 255 240 209 212 209 178 173 142 185 150 131 149 153 216 215 228 201 178 189 217 205 215 177 201 207 218 230 193 199 187 197 250 297 207 182 149 160 214 225 288 349 238
330 323 308 305 331 302 220 214 199 194 157 145 165 213 141 145 172 182 220 200 222 244 201 212 265 224 228 187 191 207 224 218 192 176 209 205 197 176 82 74 173 162 208 223 212 162 268
332 325 316 317 326 322 223 206 191 171 157 139 223 157 161 173 197 200 235 225 258 263 181 204 218 223 214 195 197 201 245 193 202 189 213 191 203 118 109 71 37 195 226 207 241 290 223
333 333 330 332 319 314 246 195 185 174 177 119 228 190 154 226 259 197 200 221 233 225 234 223 238 210 200 194 231 191 244 185 202 202 212 265 260 236 173 176 145 190 208 210 215 228 230
333 330 333 323 319 319 303 190 183 181 185 144 222 211 171 190 224 227 186 219 234 214 218 204 266 201 193 202 206 237 201 158 190 213 224 260 273 231 224 86 171 184 196 211 223 234 236
335 333 337 319 309 319 326 187 183 183 169 179 190 226 158 276 217 215 215 201 240 253 186 215 230 205 194 214 196 202 187 184 184 202 214 227 300 318 220 254 229 209 209 214 221 229 235
333 334 335 334 331 308 323 211 184 183 162 178 175 282 286 277 219 212 209 216 231 204 195 191 226 235 204 222 192 238 190 200 216 189 194 210 254 221 162 182 200 247 230 218 224 231 235
331 331 331 340 324 325 325 290 184 187 186 171 192 249 223 254 253 227 202 222 213 216 197 226 227 250 210 95 90 80 50 15 334 193 180 197 234 302 106 167 224 32 3 232 223 235 232
331 329 332 335 322 313 318 299 186 191 191 176 154 213 251 258 272 181 202 231 102 240 178 157 199 285 142 140 163 117 45 41 20 1 195 211 219 218 221 210 290 283 208 195 202 238 237
329 326 328 333 329 318 313 324 193 197 193 177 179 137 280 291 307 21 183 188 172 122 98 250 188 219 122 27 195 164 175 133 155 156 14 134 222 232 152 246 250 60 115 264 182 261 256
327 325 329 329 322 318 311 315 203 197 193 167 190 173 257 242 271 267 225 194 147 118 113 143 172 156 126 211 147 153 141 174 158 169 145 148 118 164 202 259 287 76 129 154 203 38 31
325 323 327 327 323 319 310 310 225 196 188 170 144 183 239 240 291 282 296 164 135 182 154 141 112 264 123 78 121 129 195 173 171 174 183 172 147 179 201 199 258 132 116 232 76 99 123
324 321 327 325 325 317 305 296 228 196 181 177 157 181 210 266 352 313 340 348 84 339 122 148 351 152 155 123 167 111 141 199 173 188 197 205 217 190 209 201 91 105 20 22 158 138 129